Terminal Aerodrome Forecast
Issued by NWS Blacksburg, VA

Home | Current Version | Previous Version | Text Only | Print | Product List | Glossary On
Versions: 1 2 3 4 5 6 7 8 9 10 11 12 13 14 15
000
FTUS41 KRNK 202336
TAFLYH
TAF
KLYH 202336Z 2100/2124 05008G16KT P6SM SCT250
     FM211400 01005KT P6SM SCT250
     FM212000 VRB04KT P6SM BKN250=

USA.gov is the U.S. government's official web portal to all federal, state and local government web resources and services.